STARLINK-35443, 66339

Orbit data source: Space-Track

STARLINK-35443, 66339 is a payload satellite owned by SpaceX/Seattle (US) in LEO that was launched on Thu, 06 Nov 2025 UTC via an FALCON 9 launch vehicle from the Air Force Eastern Test Range (AFETR). Payload-class satellites include a variety of spacecraft equipped with specific instruments for various scientific and technological missions. These include communications satellites like Starlink; space stations such as the ISS; scientific satellites like the Hubble; Earth observation satellites from companies like Planet Labs, Umbra, and HawkEye 360; GPS; miniature CubeSats for education and research; and military/defense satellites.

Loading next visibility...
Identifier
66339, 2025-253W
Orbit
LEO
Country
Flag of USUS
Related business
Manufacturer
SpaceX/Seattle
Mission
Operational Commercial Communications
Bus & Motor
STARLINK V2MO, Unknown motor
Mass
575 kg wet, ~530 kg dry
Launch date (UTC)
2025-11-06 (7 months ago)
Launch vehicle
FALCON 9
Launch site
Air Force Eastern Test Range (AFETR)
Object type
Payload
Rocket body
Debris
Shape & HBR
Box + 2 Pan, 17.7 m
Radar Cross Section
36.964 m², Large (>1 m²)

Expand to show TLE details & history
Last TLE update: 16 hours ago

TLE from 16 hours ago
0 STARLINK-35443
1 66339U 25253W   26170.55517247  .00012093  00000-0  44818-3 0  9999
2 66339  43.0023 357.2080 0001436 269.7624  90.3063 15.27586207 35828
Epoch: 2026-06-19T13:19Z
TLE epoch observation values (Epoch: 2026-06-19T13:19:26.901Z)
Latitude
-0.00002°
Longitude
-110.43658°
Altitude
482.812 km
Speed
7.626 km/s
True Right ascension
23h 48m 49s
True Declination
0° 00' 00"
Sunlit
Object was in daylight at epoch
Visualization orbit readout
Latitude
Unknown
Longitude
Unknown
Altitude
Unknown
Speed
Unknown
Apparent Right ascension
Unknown
Apparent Declination
Unknown
Sunlit
N/A
Visualization observer readout
Local Sidereal Time
16:04:18
Azimuth
Unknown
Elevation
Unknown
Doppler factor
Unknown
Orbital elements
Apogee altitude
485.961 km
Perigee altitude
483.99 km
Semi-major axis
6,863.112 km
Eccentricity
0.00014
Inclination
43.0023°
RAAN
357.208°
Arg. of periapsis
269.7624°
True anomaly
90.32276°
Mean anomaly
90.3063°
Eccentric anomaly
90.31453°
Mean motion
3.81735 °/min
Orbital period
94.31 mins
BSTAR
0.00044818
Loading maneuver chart data...
Computing Atmospheric mass density...
Loading historical data...
Loading historical data...
Loading historical data...
Loading historical data...
Loading historical data...
Loading historical data...
Loading historical data...

Documentation

Showing up to 5 results
|